KB2UHF-8 Weather Reports


time (UTC)temp
C
wind
direction
speed
KPH
gust
KPH
rain 1hr
cm
rain 24hr
cm
rain mn
cm
humidity
%
barometer
mb
20260507202517 13 315 12.9 24.1 0.00 0.00 0.00 42 1009.9
20260507201517 13 315 11.3 20.9 0.00 0.00 0.00 40 1010.1
20260507200516 13 315 9.7 22.5 0.00 0.00 0.00 40 1010.1
20260507195536 12 293 12.9 25.7 0.00 0.00 0.00 40 1010.3
20260507194516 13 270 12.9 32.2 0.00 0.00 0.00 37 1010.2
20260507193516 13 270 8.0 19.3 0.00 0.00 0.00 41 1010.3
20260507192516 12 338 11.3 24.1 0.00 0.00 0.00 42 1010.3
20260507191516 12 293 6.4 14.5 0.00 0.00 0.00 43 1010.4
20260507190516 12 315 12.9 29.0 0.00 0.00 0.00 45 1010.5
20260507185516 12 225 8.0 17.7 0.00 0.00 0.00 42 1010.6
20260507184516 12 270 8.0 19.3 0.00 0.00 0.00 42 1010.7
20260507183516 11 270 9.7 29.0 0.00 0.00 0.00 44 1010.8
20260507182516 12 270 11.3 22.5 0.00 0.00 0.00 45 1011.0
20260507181516 11 248 8.0 17.7 0.00 0.00 0.00 45 1010.9
20260507180515 11 293 6.4 14.5 0.00 0.00 0.00 46 1011.1
20260507175516 11 270 6.4 20.9 0.00 0.00 0.00 45 1011.2
20260507174515 11 338 4.8 14.5 0.00 0.00 0.00 47 1011.4
20260507173517 11 270 8.0 19.3 0.00 0.00 0.00 45 1011.5
20260507172535 11 225 9.7 17.7 0.00 0.00 0.00 46 1011.7
20260507171515 11 0 4.8 8.0 0.00 0.00 0.00 48 1011.7
20260507170536 10 113 6.4 12.9 0.00 0.00 0.00 50 1011.9
20260507165536 10 90 8.0 16.1 0.00 0.00 0.00 52 1012.0
20260507164515 10 68 9.7 19.3 0.00 0.00 0.00 50 1012.0
20260507163515 9 90 9.7 14.5 0.00 0.00 0.00 50 1011.9
20260507162536 9 90 4.8 16.1 0.00 0.00 0.00 51 1011.9
20260507161516 9 315 4.8 12.9 0.00 0.00 0.00 48 1011.9
20260507160515 9 0 3.2 8.0 0.00 0.00 0.00 51 1012.2
20260507155516 9 68 8.0 14.5 0.00 0.00 0.00 48 1012.3
20260507154517 9 45 4.8 14.5 0.00 0.00 0.00 50 1012.6
20260507153535 9 270 3.2 9.7 0.00 0.00 0.00 46 1012.6
20260507152516 10 135 4.8 9.7 0.00 0.00 0.00 48 1012.6
20260507151515 8 293 6.4 11.3 0.00 0.00 0.00 49 1012.7
20260507150515 8 315 4.8 8.0 0.00 0.00 0.00 50 1012.9
20260507145515 8 45 4.8 11.3 0.00 0.00 0.00 50 1013.1
20260507144515 8 90 1.6 11.3 0.00 0.00 0.00 53 1013.2
20260507143515 8 248 3.2 6.4 0.00 0.00 0.00 52 1013.1
20260507142515 8 158 4.8 9.7 0.00 0.00 0.00 56 1013.3
20260507141516 7 0.0 4.8 0.00 0.00 0.00 57 1013.6
20260507140515 7 113 1.6 8.0 0.00 0.00 0.00 61 1013.6
20260507135636 6 113 1.6 4.8 0.00 0.00 0.00 63 1013.6
20260507134515 6 90 3.2 4.8 0.00 0.00 0.00 63 1013.5
20260507133515 5 0.0 4.8 0.00 0.00 0.00 66 1013.6
20260507132515 4 113 3.2 6.4 0.00 0.00 0.00 68 1013.5
20260507131515 3 203 1.6 3.2 0.00 0.00 0.00 69 1013.5
20260507130515 3 248 1.6 6.4 0.00 0.00 0.00 69 1013.9
20260507125515 3 180 1.6 6.4 0.00 0.00 0.00 70 1013.9
20260507124517 3 158 1.6 6.4 0.00 0.00 0.00 71 1013.8
20260507123517 3 158 1.6 8.0 0.00 0.00 0.00 71 1013.7
20260507122517 3 180 1.6 8.0 0.00 0.00 0.00 72 1013.6
20260507121517 2 0.0 3.2 0.00 0.00 0.00 73 1013.5
20260507120519 1 0.0 0.0 0.00 0.00 0.00 73 1013.6
20260507115517 1 0.0 3.2 0.00 0.00 0.00 75 1013.5
20260507114517 1 225 1.6 6.4 0.00 0.00 0.00 74 1013.6
20260507113517 1 225 4.8 9.7 0.00 0.00 0.00 73 1013.6
20260507112517 1 225 4.8 14.5 0.00 0.00 0.00 73 1013.6
20260507111517 1 225 6.4 12.9 0.00 0.00 0.00 72 1013.6
20260507110537 1 225 4.8 11.3 0.00 0.00 0.00 73 1013.6
20260507105517 1 225 4.8 14.5 0.00 0.00 0.00 74 1013.5
20260507104517 1 225 4.8 9.7 0.00 0.00 0.00 75 1013.5
20260507103518 1 225 4.8 9.7 0.00 0.00 0.00 75 1013.5
20260507102517 0 225 4.8 9.7 0.00 0.00 0.00 76 1013.5
20260507101517 0 225 3.2 6.4 0.00 0.00 0.00 76 1013.6
20260507100517 0 225 4.8 9.7 0.00 0.00 0.00 77 1013.7
20260507095517 0 225 1.6 6.4 0.00 0.00 0.00 78 1013.6
20260507094517 0 0.0 4.8 0.00 0.00 0.00 78 1013.6
20260507093518 0 225 3.2 6.4 0.00 0.00 0.00 78 1013.7
20260507092517 0 225 3.2 6.4 0.00 0.00 0.00 78 1013.9
20260507091517 0 0.0 3.2 0.00 0.00 0.00 80 1013.9
20260507090517 0 0.0 0.0 0.00 0.00 0.00 81 1014.0
20260507085517 0 248 1.6 3.2 0.00 0.00 0.00 81 1014.0
20260507084517 0 0.0 3.2 0.00 0.00 0.00 82 1014.1
20260507083537 0 248 3.2 6.4 0.00 0.00 0.00 81 1014.0
20260507082517 0 0.0 0.0 0.00 0.00 0.00 79 1014.2
20260507081517 0 0.0 3.2 0.00 0.00 0.00 80 1014.1
20260507080517 -1 0.0 1.6 0.00 0.00 0.00 82 1014.2
20260507075517 -1 225 3.2 4.8 0.00 0.00 0.00 83 1014.2
20260507074517 -1 248 3.2 4.8 0.00 0.00 0.00 82 1014.2
20260507073517 -1 0.0 0.0 0.00 0.00 0.00 82 1014.3
20260507072517 -1 0.0 3.2 0.00 0.00 0.00 80 1014.1
20260507071517 -1 248 1.6 3.2 0.00 0.00 0.00 78 1014.2
20260507070517 0 180 3.2 4.8 0.00 0.00 0.00 74 1014.3
20260507065517 0 0.0 3.2 0.00 0.00 0.00 74 1014.4
20260507064517 0 0.0 1.6 0.00 0.00 0.00 74 1014.5
20260507063518 0 248 1.6 4.8 0.00 0.00 0.00 74 1014.6
20260507062517 0 248 1.6 3.2 0.00 0.00 0.00 72 1014.6
20260507061517 0 0.0 0.0 0.00 0.00 0.00 71 1014.8
20260507060517 0 0.0 0.0 0.00 0.00 0.00 71 1014.8
20260507055517 0 248 1.6 3.2 0.00 0.00 0.00 71 1014.7
20260507054516 0 180 1.6 3.2 0.00 0.00 0.00 70 1015.0
20260507053517 0 158 1.6 3.2 0.00 0.00 0.00 69 1014.9
20260507052516 1 158 3.2 6.4 0.00 0.00 0.00 68 1014.9
20260507051537 1 158 4.8 6.4 0.00 0.00 0.00 66 1014.9
20260507050517 1 158 6.4 8.0 0.00 0.00 0.00 65 1015.3
20260507045515 2 180 3.2 4.8 0.00 0.00 0.00 64 1015.3
20260507044515 2 0.0 0.0 0.00 0.00 0.00 64 1015.6
20260507043517 1 0.0 0.0 0.00 0.00 0.00 66 1015.5
20260507042515 1 0.0 0.0 0.00 0.00 0.00 65 1015.7
20260507041515 1 0.0 0.0 0.00 0.00 0.00 65 1015.7
20260507040535 2 0.0 0.0 0.00 0.00 0.00 63 1015.8
20260507035515 2 0.0 0.0 0.00 0.00 0.00 60 1015.8
20260507034515 3 0.0 0.0 0.00 0.00 0.00 59 1015.9
20260507033537 3 0.0 0.0 0.00 0.00 0.00 58 1015.9
20260507032517 3 0.0 0.0 0.00 0.00 0.00 58 1015.9
20260507031517 3 0.0 0.0 0.00 0.00 0.00 58 1015.9
20260507030517 3 0.0 0.0 0.00 0.00 0.00 57 1015.9
20260507025517 3 0.0 0.0 0.00 0.00 0.00 58 1016.0
20260507024537 3 315 1.6 1.6 0.00 0.00 0.00 58 1016.0
20260507023517 3 315 3.2 3.2 0.00 0.00 0.00 58 1016.0
20260507022518 3 315 1.6 4.8 0.00 0.00 0.00 58 1015.7
20260507021519 3 0.0 0.0 0.00 0.00 0.00 57 1015.6
20260507020537 3 315 1.6 3.2 0.00 0.00 0.00 57 1015.8
20260507015517 3 293 1.6 3.2 0.00 0.00 0.00 56 1015.4
20260507014517 3 293 1.6 3.2 0.00 0.00 0.00 56 1015.5
20260507013537 4 315 3.2 6.4 0.00 0.00 0.00 55 1015.5
20260507012537 4 315 6.4 12.9 0.00 0.00 0.00 54 1015.3
20260507011537 5 293 4.8 12.9 0.00 0.00 0.00 54 1015.3
20260507010517 5 315 6.4 14.5 0.00 0.00 0.00 53 1015.4
20260507005517 5 315 8.0 17.7 0.00 0.00 0.00 53 1015.4
20260507004517 5 315 4.8 12.9 0.00 0.00 0.00 53 1015.5
20260507003517 5 270 9.7 16.1 0.00 0.00 0.00 53 1015.3
20260507002517 5 315 9.7 17.7 0.00 0.00 0.00 52 1015.2
20260507001517 5 270 4.8 9.7 0.00 0.00 0.00 52 1015.2
20260507000517 5 270 8.0 16.1 0.00 0.00 0.00 52 1015.1
20260506235518 5 315 8.0 16.1 0.00 0.00 0.00 52 1015.2
20260506234519 6 315 8.0 16.1 0.00 0.00 0.00 52 1015.0
20260506233517 6 315 11.3 17.7 0.00 0.00 0.00 51 1015.0
20260506232517 6 293 6.4 14.5 0.00 0.00 0.00 53 1015.0
20260506231517 6 315 11.3 25.7 0.00 0.00 0.00 52 1014.9
20260506230517 6 315 8.0 16.1 0.00 0.00 0.00 52 1015.1
20260506225517 6 270 12.9 27.4 0.00 0.00 0.00 51 1015.2
20260506224517 6 315 9.7 20.9 0.00 0.00 0.00 52 1015.0
20260506223517 6 293 9.7 16.1 0.00 0.00 0.00 51 1015.1
20260506222517 6 293 9.7 19.3 0.00 0.00 0.00 52 1015.1
20260506221517 6 270 12.9 20.9 0.00 0.00 0.00 51 1015.0
20260506220517 6 270 11.3 17.7 0.00 0.00 0.00 51 1015.1
20260506215517 6 270 11.3 22.5 0.00 0.00 0.00 50 1015.1
20260506214517 6 270 14.5 24.1 0.00 0.00 0.00 49 1015.0
20260506213517 6 270 9.7 20.9 0.00 0.00 0.00 50 1015.0
20260506212517 6 293 16.1 30.6 0.00 0.00 0.00 50 1015.0
20260506211517 6 270 14.5 24.1 0.00 0.00 0.00 50 1015.0
20260506210517 6 270 11.3 24.1 0.00 0.00 0.00 51 1014.9
20260506205517 6 270 9.7 24.1 0.00 0.00 0.00 50 1015.1
20260506204516 6 270 12.9 24.1 0.00 0.00 0.00 51 1015.0
20260506203538 6 270 12.9 25.7 0.00 0.00 0.00 49 1015.1